Flag for Australia

Past Weather in Geelong, Victoria, Australia — Yesterday and Last 2 Weeks

Now
69 °F

Mild.


Feels Like: 69 °F
Forecast: 67 / 53 °F
Wind: 12 mph from North

Location: Geelong Airport Aws
Current Time: Sep 20, 2020 at 3:06:52 pm
Latest Report: Sep 20, 2020 at 2:00 pm
Visibility: N/A
Pressure29.65 "Hg
Humidity: 60%
Dew Point: 55 °F
Location of GeelongLocation

Past Weather in Geelong — Graph

°F

Geelong Temperature Yesterday

Maximum temperature yesterday: 75 °F (at 1:00 pm)
Minimum temperature yesterday: 52 °F (at 6:00 am)
Average temperature yesterday: 63 °F

High & Low Weather Summary for the Past Weeks

 TemperatureHumidityPressure
High75 °F (Sep 19, 1:00 pm)99% (Sep 6, 1:00 am)30.45 "Hg (Sep 6, 1:00 am)
Low39 °F (Sep 6, 7:00 am)34% (Sep 7, 1:00 pm)29.67 "Hg (Sep 20, 1:00 pm)
Average56 °F75%30.21 "Hg
* Reported Sep 5 1:00 pm — Sep 20 1:00 pm, Geelong. Weather by CustomWeather, © 2020

Note: Actual official high and low records may vary slightly from our data, if they occured in-between our weather recording intervals... More about our weather records

Geelong Weather History for the Previous 24 Hours

Scroll right to see more
 ConditionsComfort  
Time TempWeatherWind HumidityBarometerVisibility
1:00 pm
Sun, Sep 20
68 °FMild.14 mph61%29.67 "HgN/A
12:00 pm67 °FMild.13 mph59%29.69 "HgN/A
11:00 am69 °FMild.13 mph55%29.69 "HgN/A
10:00 am68 °FMild.14 mph56%29.71 "HgN/A
9:00 am65 °FMild.6 mph70%29.72 "HgN/A
8:00 am62 °FCool.6 mph81%29.73 "HgN/A
7:00 am61 °FCool.6 mph87%29.74 "HgN/A
6:00 am61 °FCool.8 mph88%29.72 "HgN/A
5:00 am61 °FCool.10 mph85%29.71 "HgN/A
4:00 am62 °FCool.12 mph82%29.72 "HgN/A
3:00 am63 °FMild.13 mph79%29.74 "HgN/A
2:00 am64 °FMild.14 mph73%29.77 "HgN/A
1:00 am67 °FMild.16 mph64%29.81 "HgN/A
12:00 am67 °FMild.7 mph66%29.83 "HgN/A
11:00 pm
Sat, Sep 19
67 °FMild.7 mph69%29.85 "HgN/A
10:00 pm65 °FMild.6 mph74%29.87 "HgN/A
9:00 pm65 °FMild.5 mph75%29.88 "HgN/A
8:00 pm65 °FMild.1 mph79%29.89 "HgN/A
7:00 pm66 °FMild.2 mph74%29.89 "HgN/A
6:00 pm69 °FMild.6 mph65%29.90 "HgN/A
5:00 pm73 °FMild.7 mph58%29.89 "HgN/A
4:00 pm71 °FMild.7 mph58%29.91 "HgN/A
3:00 pm73 °FMild.8 mph56%29.93 "HgN/A
Weather by CustomWeather, © 2020

See weather overview